GW3945 Weather Reports


Display with metric or nautical units.
time (UTC)temp
F
wind
direction
speed
MPH
gust
MPH
rain 1hr
in
rain 24hr
in
rain mn
in
humidity
%
barometer
mb
20260502163457 60 168 0.0 0.0 0.00 0.00 0.00 46 1015.6
20260502162954 60 172 0.0 0.0 0.00 0.00 0.00 48 1015.4
20260502162451 59 176 0.0 0.0 0.00 0.00 0.00 43 1015.5
20260502161948 59 216 0.0 0.0 0.00 0.00 0.00 44 1015.6
20260502161445 59 164 0.0 1.0 0.00 0.00 0.00 46 1016.0
20260502160943 59 281 2.0 3.0 0.00 0.00 0.00 45 1015.7
20260502160441 60 148 0.0 0.0 0.00 0.00 0.00 46 1016.0
20260502151924 58 243 1.0 1.0 0.00 0.00 0.00 48 1015.8
20260502151420 58 223 0.0 0.0 0.00 0.00 0.00 49 1015.9
20260502150918 58 166 0.0 0.0 0.00 0.00 0.00 48 1015.9
20260502150414 58 220 0.0 0.0 0.00 0.00 0.00 48 1015.8
20260502130300 49 197 0.0 0.0 0.00 0.00 0.00 84 1015.5
20260502123746 47 200 0.0 0.0 0.00 0.00 0.00 83 1015.5
20260502123242 46 200 0.0 0.0 0.00 0.00 0.00 82 1015.3
20260502122739 46 206 0.0 0.0 0.00 0.00 0.00 82 1015.3
20260502122235 45 211 0.0 0.0 0.00 0.00 0.00 82 1015.4
20260502121734 45 219 0.0 0.0 0.00 0.00 0.00 82 1015.5
20260502121231 45 229 0.0 0.0 0.00 0.00 0.00 82 1015.3
20260502120727 44 199 0.0 0.0 0.00 0.00 0.00 83 1015.3
20260502120224 44 199 0.0 0.0 0.00 0.00 0.00 83 1015.2
20260502115722 44 199 0.0 0.0 0.00 0.00 0.00 85 1015.2
20260502115219 44 201 0.0 0.0 0.00 0.00 0.00 82 1015.1
20260502114714 44 201 0.0 0.0 0.00 0.00 0.00 82 1015.2
20260502114212 43 203 0.0 0.0 0.00 0.00 0.00 82 1015.1
20260502113709 43 210 0.0 0.0 0.00 0.00 0.00 84 1015.0
20260502113207 42 215 0.0 0.0 0.00 0.00 0.00 86 1015.1
20260502112705 42 238 0.0 0.0 0.00 0.00 0.00 88 1014.8
20260502112202 42 209 0.0 0.0 0.00 0.00 0.00 88 1014.5
20260502111659 42 202 0.0 0.0 0.00 0.00 0.00 89 1014.5
20260502111157 43 197 0.0 0.0 0.00 0.00 0.00 88 1014.6
20260502110654 43 198 0.0 0.0 0.00 0.00 0.00 88 1014.6
20260502110151 42 198 0.0 0.0 0.00 0.00 0.00 85 1014.6
20260502105649 42 199 0.0 0.0 0.00 0.00 0.00 85 1014.5
20260502105146 42 203 0.0 0.0 0.00 0.00 0.00 86 1014.7
20260502104643 42 203 0.0 0.0 0.00 0.00 0.00 86 1014.7
20260502104140 42 213 0.0 0.0 0.00 0.00 0.00 86 1014.4
20260502103638 42 206 0.0 0.0 0.00 0.00 0.00 86 1014.4
20260502103136 43 194 0.0 0.0 0.00 0.00 0.00 87 1014.3
20260502102632 43 194 0.0 0.0 0.00 0.00 0.00 85 1014.6
20260502102129 43 197 0.0 0.0 0.00 0.00 0.00 84 1014.4
20260502101627 43 198 0.0 0.0 0.00 0.00 0.00 84 1014.4
20260502101125 43 203 0.0 0.0 0.00 0.00 0.00 84 1014.5
20260502100624 43 200 0.0 0.0 0.00 0.00 0.00 84 1014.4
20260502100121 43 192 0.0 0.0 0.00 0.00 0.00 84 1014.3
20260502091055 45 191 0.0 0.0 0.00 0.00 0.00 82 1014.7
20260502090552 45 190 0.0 0.0 0.00 0.00 0.00 83 1014.4
20260502071446 47 189 0.0 0.0 0.00 0.00 0.00 82 1014.9
20260502070944 47 190 0.0 0.0 0.00 0.00 0.00 81 1014.8
20260502070443 47 190 0.0 0.0 0.00 0.00 0.00 80 1015.1
20260502065941 47 192 0.0 0.0 0.00 0.00 0.00 81 1015.0
20260502065439 47 190 0.0 0.0 0.00 0.00 0.00 81 1014.9
20260502064936 47 189 0.0 0.0 0.00 0.00 0.00 79 1014.8
20260502064434 48 188 0.0 0.0 0.00 0.00 0.00 79 1014.9
20260502063931 47 188 0.0 0.0 0.00 0.00 0.00 76 1015.1
20260502063429 47 195 0.0 0.0 0.00 0.00 0.00 78 1015.0
20260502062926 47 195 0.0 0.0 0.00 0.00 0.00 78 1015.0
20260502062423 48 199 0.0 0.0 0.00 0.00 0.00 79 1015.3
20260502061922 48 208 0.0 0.0 0.00 0.00 0.00 76 1015.3
20260502061420 47 206 0.0 0.0 0.00 0.00 0.00 78 1015.4
20260502060915 47 192 0.0 0.0 0.00 0.00 0.00 81 1015.3
20260502060410 47 184 0.0 0.0 0.00 0.00 0.00 81 1015.3
20260502055908 47 188 0.0 0.0 0.00 0.00 0.00 81 1015.4
20260502055406 47 224 0.0 0.0 0.00 0.00 0.00 80 1015.0
20260502054900 47 195 0.0 0.0 0.00 0.00 0.00 79 1015.1
20260502054357 47 183 0.0 0.0 0.00 0.00 0.00 79 1015.0
20260502053854 48 185 0.0 0.0 0.00 0.00 0.00 79 1014.9
20260502053351 47 203 0.0 0.0 0.00 0.00 0.00 77 1014.8
20260502052849 47 205 0.0 0.0 0.00 0.00 0.00 80 1014.8
20260502052347 47 205 0.0 0.0 0.00 0.00 0.00 80 1014.8
20260502051844 47 208 0.0 0.0 0.00 0.00 0.00 80 1014.9
20260502051343 47 190 0.0 0.0 0.00 0.00 0.00 80 1014.8
20260502050839 48 192 0.0 0.0 0.00 0.00 0.00 79 1014.5
20260502050336 48 187 0.0 0.0 0.00 0.00 0.00 78 1014.6
20260502045833 48 188 0.0 0.0 0.00 0.00 0.00 79 1014.5
20260502045329 48 188 0.0 0.0 0.00 0.00 0.00 79 1014.7
20260502044827 48 191 0.0 0.0 0.00 0.00 0.00 78 1014.7
20260502044322 48 202 0.0 0.0 0.00 0.00 0.00 77 1014.7
20260502043820 48 188 0.0 0.0 0.00 0.00 0.00 77 1014.7
20260502043317 48 187 0.0 0.0 0.00 0.00 0.00 77 1015.0
20260502042817 48 187 0.0 0.0 0.00 0.00 0.00 77 1014.9
20260502042314 48 187 0.0 0.0 0.00 0.00 0.00 77 1015.1
20260502041812 48 187 0.0 0.0 0.00 0.00 0.00 75 1015.2
20260502041309 48 188 0.0 0.0 0.00 0.00 0.00 74 1015.3
20260502040806 49 174 0.0 0.0 0.00 0.00 0.00 74 1015.0
20260502040303 49 174 0.0 0.0 0.00 0.00 0.00 74 1015.0
20260502035759 49 174 0.0 0.0 0.00 0.00 0.00 76 1015.1
20260502035255 49 174 0.0 0.0 0.00 0.00 0.00 76 1015.2
20260502034753 49 174 0.0 0.0 0.00 0.00 0.00 74 1015.4
20260502034251 49 173 0.0 0.0 0.00 0.00 0.00 75 1015.5
20260502033749 49 173 0.0 0.0 0.00 0.00 0.00 74 1015.4
20260502033246 49 175 0.0 0.0 0.00 0.00 0.00 75 1015.6
20260502032743 50 176 0.0 0.0 0.00 0.00 0.00 73 1015.6
20260502032239 50 176 0.0 0.0 0.00 0.00 0.00 74 1015.6
20260502031737 50 176 0.0 0.0 0.00 0.00 0.00 73 1015.7
20260502031235 50 178 0.0 0.0 0.00 0.00 0.00 72 1015.7
20260502030733 51 185 0.0 0.0 0.00 0.00 0.00 71 1016.0
20260502030231 51 184 0.0 0.0 0.00 0.00 0.00 72 1015.9
20260502025728 51 181 0.0 0.0 0.00 0.00 0.00 71 1015.6
20260502025226 51 174 0.0 0.0 0.00 0.00 0.00 71 1015.6
20260502024723 51 174 0.0 0.0 0.00 0.00 0.00 72 1015.4
20260502024221 51 174 0.0 0.0 0.00 0.00 0.00 72 1015.6
20260502023719 52 174 0.0 0.0 0.00 0.00 0.00 71 1015.7
20260502023216 52 170 0.0 0.0 0.00 0.00 0.00 70 1015.5
20260502022714 52 182 0.0 0.0 0.00 0.00 0.00 69 1015.5
20260502022210 52 173 0.0 0.0 0.00 0.00 0.00 68 1015.5
20260502021707 52 178 0.0 0.0 0.00 0.00 0.00 67 1015.3
20260502021204 52 183 0.0 0.0 0.00 0.00 0.00 68 1015.5
20260502020701 52 179 0.0 0.0 0.00 0.00 0.00 68 1015.3
20260502020158 52 166 0.0 0.0 0.00 0.00 0.00 67 1015.3
20260502015656 53 168 0.0 0.0 0.00 0.00 0.00 68 1015.1
20260502015152 53 177 0.0 0.0 0.00 0.00 0.00 65 1015.2
20260502014650 53 169 0.0 0.0 0.00 0.00 0.00 66 1015.1
20260502014147 53 180 0.0 0.0 0.00 0.00 0.00 64 1015.1
20260502013643 53 179 0.0 0.0 0.00 0.00 0.00 64 1014.9
20260502013138 53 172 0.0 0.0 0.00 0.00 0.00 66 1014.7
20260502012636 53 173 0.0 0.0 0.00 0.00 0.00 63 1014.8
20260502012134 54 176 0.0 0.0 0.00 0.00 0.00 64 1015.0
20260502011630 54 176 0.0 0.0 0.00 0.00 0.00 61 1014.8
20260502011126 54 179 0.0 0.0 0.00 0.00 0.00 61 1014.7
20260502010624 54 183 0.0 0.0 0.00 0.00 0.00 60 1014.9
20260502010120 54 170 0.0 0.0 0.00 0.00 0.00 59 1014.5
20260502005618 55 175 0.0 0.0 0.00 0.00 0.00 59 1014.3
20260502005115 55 175 0.0 0.0 0.00 0.00 0.00 57 1014.2
20260502004611 55 214 0.0 0.0 0.00 0.00 0.00 56 1014.2
20260502004108 56 181 0.0 0.0 0.00 0.00 0.00 53 1014.2
20260502003606 56 191 0.0 0.0 0.00 0.00 0.00 51 1014.0
20260502003102 56 192 0.0 0.0 0.00 0.00 0.00 50 1014.1
20260502002558 57 182 0.0 0.0 0.00 0.00 0.00 51 1013.8
20260502002056 57 180 0.0 0.0 0.00 0.00 0.00 49 1013.7
20260502001554 57 212 1.0 1.0 0.00 0.00 0.00 49 1013.8
20260502001051 57 178 0.0 0.0 0.00 0.00 0.00 49 1013.5
20260502000549 57 174 0.0 0.0 0.00 0.00 0.00 52 1013.2
20260502000046 58 176 0.0 0.0 0.00 0.00 0.00 47 1013.0
20260501235542 58 207 0.0 0.0 0.00 0.00 0.00 47 1012.9
20260501235038 59 174 0.0 0.0 0.00 0.00 0.00 46 1012.8
20260501234533 59 157 0.0 0.0 0.00 0.00 0.00 50 1012.8
20260501234032 59 158 0.0 0.0 0.00 0.00 0.00 43 1012.9
20260501233530 59 180 0.0 0.0 0.00 0.00 0.00 42 1012.8
20260501233026 59 187 0.0 0.0 0.00 0.00 0.00 50 1012.7
20260501232522 60 202 0.0 0.0 0.00 0.00 0.00 44 1012.6
20260501232020 60 174 0.0 0.0 0.00 0.00 0.00 39 1012.7
20260501231518 60 177 0.0 0.0 0.00 0.00 0.00 42 1012.8
20260501231016 60 170 0.0 0.0 0.00 0.00 0.00 40 1012.8
20260501230514 60 145 0.0 0.0 0.00 0.00 0.00 45 1012.9
20260501230011 61 179 0.0 0.0 0.00 0.00 0.00 37 1012.8
20260501225510 61 298 2.0 3.0 0.00 0.00 0.00 35 1012.5
20260501225004 61 182 0.0 0.0 0.00 0.00 0.00 33 1012.6
20260501224503 61 173 0.0 0.0 0.00 0.00 0.00 37 1012.2
20260501223959 62 174 0.0 0.0 0.00 0.00 0.00 41 1012.5
20260501223456 62 180 0.0 0.0 0.00 0.00 0.00 39 1012.4
20260501222951 62 172 0.0 1.0 0.00 0.00 0.00 36 1012.5
20260501222448 62 149 0.0 0.0 0.00 0.00 0.00 35 1012.3
20260501221944 63 270 0.0 1.0 0.00 0.00 0.00 36 1012.4
20260501221442 63 233 1.0 1.0 0.00 0.00 0.00 33 1012.1
20260501220940 62 344 0.0 1.0 0.00 0.00 0.00 36 1012.2
20260501220437 62 181 0.0 0.0 0.00 0.00 0.00 35 1012.4
20260501215933 62 103 0.0 0.0 0.00 0.00 0.00 39 1012.5
20260501215430 63 178 0.0 0.0 0.00 0.00 0.00 39 1012.2
20260501214925 63 174 0.0 0.0 0.00 0.00 0.00 38 1012.4
20260501214421 63 252 2.0 2.0 0.00 0.00 0.00 34 1012.4
20260501213916 64 302 2.0 3.0 0.00 0.00 0.00 33 1012.4
20260501213414 64 15 1.0 2.0 0.00 0.00 0.00 34 1012.4
20260501212909 64 170 0.0 0.0 0.00 0.00 0.00 35 1012.6
20260501212406 64 284 2.0 2.0 0.00 0.00 0.00 32 1012.5
20260501211903 63 218 0.0 1.0 0.00 0.00 0.00 33 1012.5
20260501211400 63 204 1.0 1.0 0.00 0.00 0.00 36 1012.7
20260501210858 63 230 0.0 0.0 0.00 0.00 0.00 36 1012.8
20260501210354 63 131 0.0 0.0 0.00 0.00 0.00 35 1012.7
20260501205851 63 61 1.0 2.0 0.00 0.00 0.00 37 1012.9
20260501205348 62 182 0.0 0.0 0.00 0.00 0.00 36 1012.7
20260501204845 63 180 0.0 0.0 0.00 0.00 0.00 38 1012.9
20260501204341 62 152 0.0 0.0 0.00 0.00 0.00 37 1013.2
20260501203837 63 324 0.0 0.0 0.00 0.00 0.00 37 1013.0
20260501203335 64 166 0.0 0.0 0.00 0.00 0.00 37 1013.0
20260501202831 63 191 1.0 1.0 0.00 0.00 0.00 38 1013.3
20260501202329 63 190 0.0 1.0 0.00 0.00 0.00 36 1013.3
20260501201825 63 233 1.0 1.0 0.00 0.00 0.00 36 1013.4
20260501201322 63 191 2.0 2.0 0.00 0.00 0.00 40 1013.7
20260501200819 63 210 0.0 0.0 0.00 0.00 0.00 39 1013.7
20260501200316 64 264 0.0 1.0 0.00 0.00 0.00 37 1013.7
20260501195814 63 293 2.0 5.0 0.00 0.00 0.00 41 1013.6
20260501195309 64 230 1.0 2.0 0.00 0.00 0.00 42 1013.7
20260501194805 64 86 0.0 1.0 0.00 0.00 0.00 46 1013.4
20260501194301 64 221 0.0 0.0 0.00 0.00 0.00 48 1013.8
20260501193758 64 256 0.0 1.0 0.00 0.00 0.00 46 1013.8
20260501193257 64 177 0.0 0.0 0.00 0.00 0.00 44 1013.8
20260501192754 64 128 0.0 0.0 0.00 0.00 0.00 46 1014.0
20260501192250 65 64 0.0 0.0 0.00 0.00 0.00 46 1014.0
20260501191747 64 167 0.0 0.0 0.00 0.00 0.00 48 1013.8
20260501191245 64 319 2.0 3.0 0.00 0.00 0.00 50 1013.8
20260501190742 64 176 1.0 2.0 0.00 0.00 0.00 48 1014.0
20260501190237 64 270 0.0 1.0 0.00 0.00 0.00 49 1014.1
20260501185733 64 181 0.0 0.0 0.00 0.00 0.00 50 1014.0
20260501185229 63 220 2.0 2.0 0.00 0.00 0.00 50 1014.1
20260501184725 63 230 1.0 2.0 0.00 0.00 0.00 49 1014.0
20260501184221 63 239 0.0 0.0 0.00 0.00 0.00 48 1014.0
20260501183717 63 223 0.0 0.0 0.00 0.00 0.00 48 1014.0
20260501183214 63 169 0.0 0.0 0.00 0.00 0.00 49 1014.0
20260501182710 63 207 0.0 0.0 0.00 0.00 0.00 51 1014.0
20260501182207 62 220 0.0 0.0 0.00 0.00 0.00 50 1013.9
20260501181704 62 212 0.0 1.0 0.00 0.00 0.00 47 1013.9
20260501181202 63 224 2.0 3.0 0.00 0.00 0.00 47 1013.9
20260501180700 63 198 0.0 0.0 0.00 0.00 0.00 47 1013.8
20260501180155 62 192 0.0 1.0 0.00 0.00 0.00 48 1013.9
20260501175652 62 303 1.0 2.0 0.00 0.00 0.00 49 1013.9
20260501175149 63 200 2.0 3.0 0.00 0.00 0.00 47 1013.9
20260501174645 63 161 0.0 0.0 0.00 0.00 0.00 51 1013.8
20260501174143 63 208 0.0 0.0 0.00 0.00 0.00 52 1013.9
20260501173640 62 230 0.0 0.0 0.00 0.00 0.00 50 1014.0
20260501173137 62 194 0.0 0.0 0.00 0.00 0.00 53 1014.2
20260501172633 61 171 0.0 0.0 0.00 0.00 0.00 59 1014.0
20260501172128 61 221 0.0 1.0 0.00 0.00 0.00 55 1014.3
20260501171624 61 102 0.0 1.0 0.00 0.00 0.00 55 1014.3
20260501171122 61 176 0.0 0.0 0.00 0.00 0.00 59 1014.1
20260501170619 61 194 0.0 0.0 0.00 0.00 0.00 59 1014.2
20260501170115 61 270 0.0 1.0 0.00 0.00 0.00 57 1014.2
20260501165613 61 265 2.0 2.0 0.00 0.00 0.00 57 1013.9
20260501165110 61 242 2.0 2.0 0.00 0.00 0.00 59 1014.1
20260501164608 61 225 0.0 0.0 0.00 0.00 0.00 62 1014.2
20260501164104 61 177 0.0 0.0 0.00 0.00 0.00 61 1014.1
20260501163601 60 283 0.0 0.0 0.00 0.00 0.00 64 1014.2